This is the latest recevied weather packets stored in our database for station/object OE-11179. If no packets are shown the sender has not sent any weather packets the latest 10 day(s).
| Time | Temp. | Humidity | Pressure | Rain* | Wind** | Luminosity | Snow |
|---|---|---|---|---|---|---|---|
| 1787999132 | 17.78° C | 70% | - | 0 mm | - | - | - |
| 1787998305 | 17.78° C | 70% | - | 0 mm | - | - | - |
| 1787997931 | 16.67° C | 75% | - | 0 mm | - | - | - |
| 1787997332 | 16.67° C | 75% | - | 0 mm | - | - | - |
| 1787996505 | 16.67° C | 77% | - | 0 mm | - | - | - |
| 1787996132 | 16.11° C | 79% | - | 0 mm | - | - | - |
| 1787995532 | 16.11° C | 81% | - | 0 mm | - | - | - |
| 1787994705 | 15.56° C | 82% | - | 0 mm | - | - | - |
| 1787994332 | 15.56° C | 83% | - | 0 mm | - | - | - |
| 1787993732 | 15° C | 88% | - | 0 mm | - | - | - |
| 1787992904 | 15° C | 89% | - | 0.25 mm | - | - | - |
| 1787992531 | 15° C | 92% | - | 1.02 mm | - | - | - |
| 1787991932 | 14.44° C | 92% | - | 1.52 mm | - | - | - |
| 1787991105 | 13.89° C | 91% | - | 2.03 mm | - | - | - |
| 1787990732 | 13.89° C | 95% | - | 2.54 mm | - | - | - |
| 1787990132 | 13.89° C | 96% | - | 2.54 mm | - | - | - |
| 1787989304 | 13.33° C | 97% | - | 2.54 mm | - | - | - |
| 1787988331 | 13.33° C | 98% | - | 1.52 mm | - | - | - |
| 1787987505 | 13.33° C | 97% | - | 1.02 mm | - | - | - |
| 1787987132 | 13.33° C | 96% | - | 0.51 mm | - | - | - |
| 1787986532 | 13.33° C | 90% | - | 0 mm | - | - | - |
| 1787985705 | 13.89° C | 92% | - | 0 mm | - | - | - |
| 1787985331 | 13.33° C | 92% | - | 0 mm | - | - | - |
| 1787984732 | 13.33° C | 93% | - | 0 mm | - | - | - |
| 1787983905 | 12.78° C | 94% | - | 0 mm | - | - | - |
* Rain latest hour (hover to see other rain measurements)
** Current wind speed in m/s (hover to see current wind gust speed)